This is the latest recevied weather packets stored in our database for station/object DF7ER-12. If no packets are shown the sender has not sent any weather packets the latest 10 day(s).
| Time | Temp. | Humidity | Pressure | Rain* | Wind** | Luminosity | Snow |
|---|---|---|---|---|---|---|---|
| 1777124903 | 17.78° C | 58% | 1004.6 hPa | - | - | - | - |
| 1777124603 | 17.22° C | 60% | 1004.4 hPa | - | - | - | - |
| 1777124303 | 18.33° C | 58% | 1004.5 hPa | - | - | - | - |
| 1777124003 | 18.89° C | 58% | 1004.6 hPa | - | - | - | - |
| 1777123703 | 18.33° C | 57% | 1004.5 hPa | - | - | - | - |
| 1777123402 | 18.33° C | 56% | 1004.5 hPa | - | - | - | - |
| 1777123103 | 18.33° C | 58% | 1004.6 hPa | - | - | - | - |
| 1777122803 | 18.33° C | 58% | 1004.6 hPa | - | - | - | - |
| 1777122502 | 18.89° C | 58% | 1004.5 hPa | - | - | - | - |
| 1777122202 | 18.33° C | 56% | 1004.6 hPa | - | - | - | - |
| 1777121902 | 18.89° C | 57% | 1004.7 hPa | - | - | - | - |
| 1777121603 | 18.89° C | 56% | 1004.8 hPa | - | - | - | - |
| 1777121303 | 17.78° C | 57% | 1004.8 hPa | - | - | - | - |
| 1777121002 | 18.33° C | 59% | 1004.8 hPa | - | - | - | - |
| 1777120703 | 18.33° C | 57% | 1004.9 hPa | - | - | - | - |
| 1777120403 | 18.33° C | 58% | 1004.9 hPa | - | - | - | - |
| 1777120102 | 18.33° C | 58% | 1004.9 hPa | - | - | - | - |
| 1777119802 | 18.89° C | 57% | 1004.9 hPa | - | - | - | - |
| 1777119502 | 18.33° C | 58% | 1005 hPa | - | - | - | - |
| 1777119202 | 17.78° C | 58% | 1005.1 hPa | - | - | - | - |
| 1777118902 | 18.33° C | 58% | 1005.2 hPa | - | - | - | - |
| 1777118602 | 19.44° C | 58% | 1005.2 hPa | - | - | - | - |
| 1777118302 | 18.33° C | 59% | 1005.3 hPa | - | - | - | - |
| 1777118003 | 18.33° C | 58% | 1005.2 hPa | - | - | - | - |
| 1777117703 | 17.22° C | 58% | 1005.2 hPa | - | - | - | - |
* Rain since midnight (hover to see other rain measurements)
** Current wind speed in m/s (hover to see current wind gust speed)